Temperature
13 13 13 13 12 12 12 12 12 12 12 12 12 12 13 13 13 13 13 13 13 13 13 14 14 14 14 15 15 15 15 15 15 15 15 16 15 15 15 15 16 16 16
13 13 13 13 13 12 12 12 12 12 12 12 12 12 12 12 12 12 13 13 13 13 13 13 14 14 14 14 15 15 15 15 15 15 15 15 15 15 15 15 15 15 15
13 13 13 13 12 12 12 12 12 12 12 12 12 12 12 12 12 12 13 13 13 13 13 13 13 14 14 14 14 14 15 15 15 15 15 15 15 15 15 15 15 15 15
13 13 13 13 12 12 12 12 12 12 12 12 12 12 12 12 12 12 12 13 13 13 13 13 13 13 14 14 14 14 14 14 15 14 15 14 14 14 14 14 14 14 14
14 13 13 13 12 12 12 12 12 12 12 12 12 12 12 12 12 12 12 13 13 13 13 13 13 13 13 14 14 14 14 14 14 14 14 14 14 14 14 14 14 14 13
14 13 13 13 12 12 12 12 12 12 12 12 12 11 12 12 12 12 12 12 13 13 13 13 13 13 13 13 13 13 14 14 14 14 14 14 14 14 14 14 14 13 13
14 14 13 13 12 12 12 12 12 12 12 12 12 12 12 12 12 12 12 12 12 12 12 13 13 13 13 13 13 13 13 13 13 14 14 14 14 14 14 14 14 13 13
14 14 13 13 13 12 12 12 12 12 12 12 12 12 12 12 12 12 12 12 12 12 12 12 13 13 13 13 13 13 13 13 13 13 13 14 14 14 14 14 14 13 13
15 14 14 13 13 13 12 12 12 12 12 12 12 12 12 12 12 12 12 12 12 12 12 12 12 13 13 13 13 13 13 13 13 13 13 13 13 13 13 13 13 13 12
15 14 14 14 13 13 13 13 12 12 12 12 12 12 12 12 12 12 12 12 12 12 12 12 12 13 13 13 13 13 13 13 13 13 13 13 13 13 13 13 13 13 13
15 15 14 14 14 13 13 13 13 13 12 12 12 12 12 12 12 12 12 12 12 12 12 12 12 12 12 12 13 13 13 13 13 13 13 13 13 13 13 13 13 13 13
15 15 14 14 14 13 13 13 13 13 13 13 13 12 12 12 12 12 12 12 12 12 12 12 12 12 12 12 12 12 12 13 13 12 12 12 12 12 12 12 12 12 12
15 15 15 14 14 14 14 13 13 13 13 13 13 12 12 12 12 12 12 12 12 12 12 12 12 12 12 12 12 12 12 12 12 12 12 12 12 12 12 12 12 12 12
15 15 15 15 14 14 14 14 14 14 13 13 13 13 12 12 12 12 12 12 12 12 12 12 12 12 12 12 12 12 12 12 12 12 12 12 12 12 12 12 11 11 11
15 15 15 15 15 15 14 14 14 14 14 13 13 13 13 13 13 12 12 12 12 12 12 12 12 12 12 12 12 12 12 12 12 12 12 12 12 12 11 11 11 11 11
15 15 15 15 15 15 14 14 14 14 14 14 14 14 13 13 13 13 13 12 12 12 12 12 12 12 12 12 12 12 12 12 12 12 12 12 11 11 11 11 11 11 11
14 14 14 14 14 14 14 14 14 14 14 14 14 14 14 14 13 13 13 13 12 12 12 12 12 12 12 12 12 12 12 12 12 12 11 11 11 11 11 11 11 11 11
14 14 14 14 14 14 14 14 14 14 14 14 14 14 14 14 13 13 13 13 13 12 12 12 12 12 12 12 12 12 12 11 11 11 11 11 11 11 11 11 11 11 11
13 13 13 13 13 13 13 13 13 13 14 14 14 14 14 14 13 13 13 13 13 13 12 12 12 12 12 12 11 11 11 11 11 11 11 11 11 11 11 11 11 10 10
12 12 12 12 12 13 13 13 13 13 13 13 13 13 13 13 13 13 13 13 13 13 13 12 12 12 12 12 11 11 11 11 11 11 11 11 11 11 11 10 10 10 10
11 11 11 11 12 12 12 12 12 12 13 13 13 13 13 13 13 13 13 13 13 13 12 12 12 12 12 12 12 11 11 11 11 11 11 11 11 11 11 11 10 10 10
10 10 10 10 11 11 11 11 11 11 12 12 12 12 12 12 12 12 12 12 12 12 12 12 12 12 12 12 12 11 11 11 11 11 11 11 11 11 11 10 10 10 10
9 9 9 9 10 10 10 10 10 10 10 10 11 11 11 11 11 12 12 12 12 11 11 12 12 12 12 11 11 11 11 11 11 11 11 11 11 11 10 10 10 10 10
8 8 8 8 8 8 9 9 9 9 9 9 9 9 10 10 10 10 10 11 11 11 11 11 11 11 11 11 11 11 11 11 11 11 11 11 11 11 10 10 10 10 10
7 7 7 7 7 7 7 7 7 8 8 8 8 8 8 8 8 9 9 9 9 10 10 10 10 10 10 10 10 10 11 11 10 10 10 10 10 10 10 10 10 10 10
7 7 7 6 6 6 6 6 6 6 6 6 6 6 7 7 7 7 7 8 8 8 9 9 9 9 9 10 10 10 10 10 10 10 10 10 10 10 10 10 10 10 9
Wind_Speed
5 5 6 5 5 5 5 6 6 6 7 7 6 5 5 4 3 3 3 3 3 3 3 3 4 4 4 4 4 4 5 5 4 3 2 3 4 5 5 7 9 11 12
3 5 6 5 5 6 7 7 7 7 7 7 6 5 5 5 4 4 4 3 2 2 3 3 3 3 4 4 4 5 5 5 5 5 3 3 4 5 6 5 5 8 9
2 4 5 6 6 6 6 7 7 7 7 7 7 6 5 5 5 5 4 4 3 2 2 3 3 3 3 3 4 4 4 5 5 5 4 3 3 4 5 4 4 4 6
1 2 4 5 5 5 6 7 7 7 7 7 7 7 6 6 6 6 6 5 3 2 2 2 2 2 2 2 2 2 2 3 4 5 4 4 3 3 5 4 4 3 3
1 2 3 5 5 5 5 6 7 7 7 6 7 7 6 5 6 6 6 5 4 3 2 1 1 2 1 1 1 1 1 1 3 4 4 4 4 5 5 4 5 4 3
1 2 2 3 4 4 5 5 6 6 6 6 6 6 6 6 8 8 7 5 4 3 2 1 1 2 3 3 3 3 3 3 3 3 4 5 6 6 5 6 6 5 3
1 1 2 3 3 4 5 5 6 5 5 5 6 6 6 6 8 9 9 5 4 3 2 2 2 1 0 2 3 3 3 4 5 4 4 6 6 7 8 7 7 5 4
1 1 1 1 2 3 3 4 4 5 5 4 5 5 5 6 8 9 10 5 4 3 3 3 1 2 2 2 1 1 1 2 3 4 4 3 4 6 7 7 7 5 4
1 1 1 1 1 2 4 4 3 4 4 5 4 4 5 6 7 7 8 4 4 4 4 5 4 3 4 4 1 1 1 0 1 3 4 4 5 7 8 7 7 7 4
2 1 1 1 1 2 3 4 4 4 4 4 4 4 4 4 5 6 7 3 4 4 3 4 5 5 5 5 1 1 1 1 2 2 3 3 4 6 8 8 9 8 5
3 1 1 1 2 3 3 3 4 4 4 4 4 3 2 2 2 4 4 3 3 4 3 3 3 5 5 5 2 0 1 1 1 2 3 3 3 4 4 4 5 7 6
1 2 3 3 4 3 3 4 4 4 5 5 4 3 1 0 1 1 3 3 3 3 3 2 2 4 5 5 2 1 0 1 1 2 2 3 3 3 3 4 4 4 4
3 4 5 5 5 4 4 4 4 3 3 4 3 3 3 1 1 1 1 4 4 2 2 3 4 4 4 2 1 2 1 1 2 2 2 2 2 4 4 4 4 5 5
5 5 6 6 5 5 4 3 3 3 3 3 3 3 3 2 1 1 1 2 3 3 3 4 5 4 3 2 2 2 2 1 2 2 2 2 3 4 4 3 4 4 4
5 5 5 4 4 4 4 4 4 4 4 4 3 3 3 2 1 1 1 1 2 3 4 3 2 2 2 2 1 1 1 1 2 2 3 3 4 4 3 3 4 4 3
5 4 3 2 2 3 4 4 8 9 9 10 9 7 4 5 4 3 3 3 4 5 3 3 4 3 3 2 2 2 2 2 3 3 3 4 4 5 4 4 4 4 4
5 4 3 3 3 3 4 4 5 7 10 11 12 11 10 9 8 7 6 5 7 5 3 5 5 4 4 3 3 3 3 3 3 4 4 4 5 5 5 5 5 5 5
5 5 5 4 4 4 5 5 4 5 4 5 9 14 13 13 12 10 6 3 5 5 5 6 6 5 4 4 4 3 3 3 3 4 4 5 5 5 5 5 6 6 5
4 3 4 5 4 4 4 5 5 5 5 5 4 5 11 11 10 9 6 5 6 6 6 6 6 6 5 5 4 4 4 4 4 4 5 5 5 5 5 5 6 8 7
5 7 7 5 4 4 5 5 4 4 4 4 4 3 1 3 4 5 6 7 7 7 7 6 6 6 5 5 5 5 5 5 5 5 5 5 6 6 6 7 6 6 6
6 6 8 5 4 4 5 5 5 4 4 4 4 4 2 2 5 6 6 7 8 8 8 7 6 6 5 5 5 6 7 6 6 6 6 6 6 6 6 6 7 7 6
6 5 5 5 5 5 6 6 6 6 6 6 5 5 5 2 3 4 4 5 6 7 7 6 6 6 6 6 6 6 7 7 7 7 7 7 7 7 7 7 6 6 7
6 6 6 6 5 7 7 6 6 6 7 7 7 6 5 4 5 5 6 6 6 5 5 5 6 6 6 6 6 7 8 8 8 8 8 8 7 7 7 8 9 8 8
6 6 7 7 6 7 7 7 7 7 8 8 8 8 8 7 6 7 7 7 7 6 6 5 6 7 9 6 6 7 7 7 7 7 10 9 9 8 8 8 8 9 9
6 6 6 6 6 7 7 7 8 8 8 8 8 8 9 9 9 9 9 8 9 10 10 8 6 7 9 10 8 7 9 13 12 8 7 8 10 10 9 9 8 8 9
5 5 5 5 6 6 6 7 7 8 8 8 8 8 8 9 9 10 10 10 11 10 11 10 12 13 13 10 10 11 11 12 13 13 8 7 9 9 9 8 10 9 9
Wind_Direction
356 348 340 337 333 336 344 343 339 337 333 332 330 338 334 324 318 313 303 281 256 254 250 238 231 218 208 209 204 201 198 191 196 198 182 174 172 166 164 173 164 173 182
360 341 329 328 342 352 351 350 348 345 341 338 341 351 345 344 346 333 322 313 280 269 261 247 244 233 213 206 207 205 204 196 185 187 181 179 181 165 160 163 156 162 168
359 331 327 344 355 354 352 354 349 346 348 349 351 354 351 352 350 341 336 324 303 280 263 246 243 235 232 218 209 204 209 205 182 175 173 169 173 160 148 144 140 137 152
340 321 335 344 352 358 0 355 350 352 356 357 356 356 356 356 352 352 345 335 325 306 290 273 259 231 237 222 215 209 203 198 179 174 170 163 164 158 148 150 146 143 149
333 348 4 354 4 359 358 356 356 357 359 358 358 356 355 355 3 0 343 332 327 320 307 282 207 159 168 163 191 180 152 191 176 175 176 165 167 162 168 159 153 144 137
341 30 23 349 358 351 352 359 357 352 352 359 359 356 358 3 360 357 348 332 332 332 327 319 230 193 186 181 187 187 177 191 196 189 192 184 186 175 161 160 153 155 170
348 49 35 359 355 355 354 354 348 345 356 359 354 356 359 359 355 354 352 340 329 332 332 342 342 354 149 162 181 190 200 216 216 205 205 203 188 177 170 171 169 167 165
27 0 33 342 337 342 338 335 336 341 348 344 343 347 352 358 7 5 354 350 349 353 1 2 14 30 24 26 85 154 179 211 219 207 205 211 191 173 173 172 163 144 116
167 282 306 305 331 332 326 323 325 331 330 328 334 346 353 2 17 14 4 349 3 7 17 23 27 41 35 20 64 142 143 148 136 153 157 161 160 166 159 151 153 154 153
157 194 325 357 329 311 308 312 314 309 306 317 327 336 352 1 24 21 14 359 357 1 11 28 42 39 22 10 7 162 162 171 132 117 118 133 149 160 173 177 173 169 154
83 40 333 288 267 259 269 285 294 300 307 307 304 307 332 358 27 25 16 8 348 344 358 10 23 24 15 358 355 93 180 156 146 142 136 139 134 139 157 162 161 165 161
141 239 262 264 269 279 258 264 277 290 293 294 296 305 303 70 90 31 7 355 347 349 348 360 16 9 4 0 359 335 23 37 124 138 137 136 139 141 138 136 140 142 146
215 232 243 249 241 241 248 256 262 267 276 289 304 315 316 323 154 131 353 341 351 353 341 328 325 328 335 321 283 273 270 200 176 163 159 155 147 139 128 120 114 111 109
241 239 239 243 242 235 230 236 252 267 281 293 304 304 303 314 354 25 323 312 329 332 323 315 308 305 299 286 275 271 247 191 167 162 155 145 132 130 136 139 137 136 127
273 258 248 244 247 248 238 232 235 232 226 238 263 286 303 303 281 330 348 338 344 334 324 306 288 274 270 260 238 224 192 163 161 158 153 150 147 147 153 151 149 147 151
294 298 294 276 255 249 254 257 239 233 233 228 230 236 250 246 239 250 272 290 305 319 320 287 283 273 256 244 230 228 210 196 183 170 170 171 170 168 169 166 163 165 166
309 308 304 298 290 273 263 261 270 259 245 245 244 242 240 249 251 254 264 285 290 292 269 261 261 260 249 239 226 223 223 209 189 181 182 180 178 176 173 175 177 176 177
320 326 322 301 290 282 278 274 269 269 267 255 243 237 237 241 245 248 250 270 274 249 241 249 253 253 245 233 226 220 220 213 197 191 188 187 183 180 180 182 184 184 182
330 327 316 305 294 290 290 289 283 279 276 272 262 238 232 236 243 245 221 228 250 255 247 243 243 244 243 233 224 216 211 212 206 197 196 192 189 186 191 191 188 189 186
335 334 329 318 317 318 311 299 293 293 294 293 287 277 196 183 219 224 212 225 242 253 256 253 246 239 235 232 226 218 217 217 213 208 203 199 195 190 193 193 190 188 189
337 336 337 333 330 329 322 319 318 313 309 307 302 302 298 227 236 243 231 224 230 240 247 249 246 240 236 231 223 222 221 221 217 213 208 204 199 197 196 195 196 193 187
341 343 346 346 343 343 338 335 336 336 333 328 324 319 309 309 289 281 280 272 251 239 237 239 240 235 227 223 223 225 226 223 219 216 211 206 202 200 197 198 198 195 192
347 352 353 352 353 351 350 349 348 347 346 344 343 344 350 339 328 324 316 310 305 296 271 247 242 242 235 227 223 223 230 230 220 212 210 208 204 201 199 202 202 199 199
356 0 0 358 360 359 357 356 355 355 354 354 355 353 351 346 338 332 330 327 325 321 319 305 277 259 251 242 239 233 232 236 235 222 209 207 207 204 201 203 203 202 201
356 359 1 1 0 357 356 356 356 358 356 356 355 353 351 350 348 346 344 343 339 334 326 319 315 300 283 266 255 252 248 241 239 237 223 212 208 205 201 203 201 200 200
352 359 1 0 359 356 356 355 356 356 354 354 352 351 350 349 349 349 348 346 341 336 333 331 327 324 314 302 285 271 257 247 243 239 234 223 213 211 204 204 204 201 201
Height
1506 1504 1502 1500 1497 1495 1492 1489 1486 1483 1481 1479 1477 1475 1473 1473 1472 1471 1471 1471 1472 1472 1473 1474 1475 1477 1478 1480 1482 1484 1486 1488 1490 1493 1495 1497 1499 1502 1504 1507 1510 1513 1516
1506 1504 1502 1500 1497 1494 1492 1489 1486 1483 1481 1478 1476 1474 1473 1472 1471 1470 1469 1469 1470 1470 1471 1472 1473 1474 1476 1477 1479 1480 1482 1484 1487 1489 1491 1494 1496 1499 1501 1504 1506 1509 1512
1505 1503 1501 1499 1497 1494 1491 1489 1486 1483 1481 1478 1476 1474 1472 1471 1469 1469 1468 1468 1468 1468 1469 1470 1470 1472 1473 1474 1476 1477 1479 1481 1483 1485 1487 1490 1493 1495 1497 1500 1502 1505 1508
1505 1503 1501 1499 1497 1494 1492 1489 1486 1483 1481 1478 1476 1474 1472 1470 1469 1467 1467 1466 1466 1467 1467 1468 1468 1469 1470 1471 1473 1474 1476 1478 1480 1482 1484 1487 1489 1492 1494 1496 1499 1501 1504
1505 1503 1501 1499 1497 1494 1492 1489 1487 1484 1481 1478 1476 1474 1472 1470 1468 1467 1466 1465 1465 1465 1466 1466 1467 1467 1468 1469 1470 1472 1473 1475 1477 1479 1481 1483 1485 1488 1490 1493 1495 1498 1500
1505 1503 1501 1499 1497 1494 1492 1490 1487 1485 1482 1479 1477 1474 1472 1470 1469 1467 1466 1465 1464 1464 1465 1465 1465 1466 1467 1468 1469 1470 1471 1473 1474 1476 1478 1480 1482 1484 1487 1489 1492 1495 1497
1504 1502 1500 1499 1496 1494 1492 1490 1488 1485 1483 1480 1478 1475 1473 1471 1469 1468 1466 1465 1464 1464 1464 1464 1465 1465 1466 1466 1467 1468 1469 1470 1472 1473 1475 1476 1478 1480 1483 1486 1488 1491 1493
1503 1502 1500 1498 1496 1494 1492 1490 1488 1486 1484 1481 1479 1476 1474 1471 1469 1468 1467 1466 1465 1464 1464 1464 1464 1464 1464 1465 1466 1466 1467 1468 1469 1470 1472 1474 1476 1478 1480 1483 1485 1488 1491
1502 1501 1500 1498 1496 1494 1492 1491 1489 1487 1484 1482 1480 1477 1475 1472 1470 1469 1468 1466 1465 1464 1464 1464 1463 1463 1463 1464 1464 1465 1465 1466 1467 1468 1469 1470 1473 1475 1477 1479 1482 1484 1486
1501 1500 1499 1497 1496 1494 1492 1490 1489 1487 1485 1483 1481 1478 1476 1474 1472 1470 1469 1467 1466 1465 1464 1464 1463 1462 1462 1462 1462 1463 1463 1464 1465 1465 1467 1468 1470 1471 1473 1475 1478 1480 1482
1500 1499 1497 1496 1495 1493 1492 1490 1488 1487 1485 1483 1481 1479 1477 1475 1474 1472 1470 1468 1467 1466 1465 1464 1463 1462 1461 1461 1461 1462 1462 1463 1463 1464 1465 1466 1467 1469 1470 1472 1474 1477 1479
1498 1497 1496 1495 1494 1493 1491 1489 1488 1486 1485 1483 1481 1480 1478 1476 1474 1473 1471 1469 1468 1466 1465 1464 1463 1462 1461 1461 1461 1461 1461 1462 1462 1463 1464 1465 1466 1467 1468 1470 1472 1474 1477
1497 1495 1494 1493 1492 1491 1490 1488 1487 1486 1484 1483 1481 1480 1478 1476 1474 1473 1471 1470 1468 1467 1466 1465 1464 1463 1462 1461 1461 1461 1461 1461 1462 1462 1463 1464 1465 1466 1467 1469 1471 1473 1475
1495 1494 1493 1491 1490 1489 1488 1487 1486 1484 1483 1482 1480 1479 1477 1476 1474 1472 1471 1469 1468 1467 1466 1465 1464 1463 1462 1461 1461 1461 1461 1461 1461 1462 1463 1464 1464 1465 1466 1468 1469 1471 1473
1492 1491 1490 1489 1488 1487 1486 1485 1484 1482 1481 1480 1479 1477 1476 1474 1473 1472 1470 1469 1467 1466 1465 1464 1463 1462 1462 1461 1461 1460 1460 1460 1461 1461 1462 1463 1463 1464 1466 1467 1468 1470 1471
1489 1489 1488 1487 1486 1484 1483 1482 1481 1480 1479 1478 1476 1475 1473 1472 1471 1470 1469 1467 1466 1465 1464 1463 1462 1462 1461 1460 1460 1459 1459 1459 1459 1460 1460 1461 1462 1463 1464 1466 1467 1468 1469
1486 1486 1485 1484 1483 1481 1480 1479 1478 1477 1476 1475 1473 1472 1471 1470 1468 1467 1466 1465 1464 1463 1462 1461 1461 1460 1460 1459 1458 1458 1458 1458 1458 1458 1458 1459 1460 1461 1462 1463 1465 1466 1467
1484 1482 1481 1480 1479 1478 1477 1476 1475 1474 1472 1471 1470 1469 1468 1466 1465 1464 1463 1462 1461 1460 1459 1458 1458 1457 1457 1457 1456 1456 1456 1456 1455 1456 1456 1457 1457 1458 1459 1461 1462 1463 1465
1481 1479 1478 1477 1476 1475 1474 1472 1472 1471 1469 1468 1467 1465 1464 1463 1462 1461 1460 1458 1457 1456 1456 1455 1454 1454 1454 1453 1453 1453 1453 1453 1453 1453 1453 1454 1454 1455 1457 1458 1459 1460 1462
1478 1477 1476 1474 1473 1472 1470 1469 1468 1467 1466 1464 1463 1462 1461 1459 1458 1457 1456 1455 1453 1452 1452 1451 1450 1450 1450 1449 1449 1449 1449 1449 1449 1449 1449 1450 1451 1452 1453 1454 1455 1457 1458
1476 1475 1473 1472 1470 1469 1468 1467 1465 1464 1462 1461 1460 1459 1457 1455 1454 1453 1452 1450 1449 1448 1447 1446 1445 1445 1445 1444 1444 1444 1444 1444 1444 1445 1445 1446 1447 1447 1448 1450 1451 1452 1454
1474 1473 1472 1470 1468 1467 1465 1464 1463 1461 1460 1458 1456 1455 1453 1451 1449 1448 1447 1446 1445 1443 1442 1441 1440 1440 1439 1439 1438 1438 1438 1438 1438 1439 1440 1440 1441 1442 1443 1445 1446 1447 1449
1473 1472 1470 1469 1467 1465 1463 1462 1460 1459 1457 1455 1453 1451 1449 1447 1445 1444 1442 1441 1439 1438 1437 1436 1435 1434 1433 1432 1432 1432 1432 1432 1432 1433 1434 1434 1435 1436 1437 1439 1440 1441 1443
1472 1471 1469 1467 1466 1464 1462 1460 1458 1456 1454 1452 1450 1448 1446 1444 1441 1439 1437 1435 1433 1432 1430 1429 1428 1427 1426 1426 1425 1425 1424 1425 1426 1426 1427 1427 1428 1429 1431 1432 1433 1435 1437
1471 1470 1469 1467 1465 1463 1461 1459 1457 1455 1452 1450 1448 1445 1443 1440 1438 1435 1432 1430 1427 1425 1423 1422 1420 1419 1418 1418 1417 1416 1416 1417 1418 1418 1419 1420 1421 1422 1423 1424 1426 1428 1430
1471 1469 1468 1466 1464 1462 1460 1458 1456 1453 1451 1448 1446 1443 1440 1437 1434 1431 1428 1425 1422 1420 1417 1415 1413 1411 1409 1408 1408 1407 1407 1407 1408 1409 1410 1411 1412 1413 1415 1416 1418 1420 1422